Weather History for Wheaton NDB, MN

Change the Weather History Date:

Sunday, February 2, 2014

  Actual Average Record
Temperature  
Mean Temperature 9 °F -  
Max Temperature 17 °F 20 °F 66 °F (1991)
Min Temperature 1 °F 0 °F -23 °F (2001)
Degree Days  
Heating Degree Days 56    
Moisture  
Dew Point 2 °F    
Average Humidity 76    
Maximum Humidity 85    
Minimum Humidity 63    
Precipitation  
Precipitation 0.00 in - - ()
Sea Level Pressure  
Sea Level Pressure 30.18 in    
Wind  
Wind Speed 7 mph (SSW)    
Max Wind Speed 13 mph    
Max Gust Speed -    
Visibility 10 miles    
Events      
Averages and records for this station are not official NWS values.
T = Trace of Precipitation, MM = Missing Value Source: NWS Daily Summary

Daily Weather History Graph

Daily Weather History Graph

Search for Another Location

Airport:

Trip Planner

Search our weather history database for the weather conditions in past years. The results will help you decide how hot, cold, wet, or windy it might be!

Date:

Astronomy

Feb. 02, 2014 Rise Set
Actual Time 7:46 AM CST 5:33 PM CST
Civil Twilight 7:14 AM CST 6:05 PM CST
Nautical Twilight 6:39 AM CST 6:41 PM CST
Astronomical Twilight 6:04 AM CST 7:15 PM CST
Moon 9:01 AM CST (2/2) 9:33 PM CST (2/2)
Length of Visible Light 10h 50m
Length of Day
9h 47m
Waxing Crescent, 11% of the Moon is Illuminated
Feb 2
Waxing Crescent
Feb 6
First Quarter
Feb 14
Full
Feb 22
Last Quarter
Mar 1
New

Hourly Weather History & Observations

Time (CST) Temp. Windchill Dew Point Humidity Pressure Visibility Wind Dir Wind Speed Gust Speed Precip Events Conditions
12:15 AM 1.4 °F -8.3 °F -2.2 °F 85% 30.24 in 10.0 mi WSW 4.6 mph - N/A   Scattered Clouds
12:34 AM 3.2 °F -7.8 °F -2.2 °F 78% 30.24 in 10.0 mi WSW 5.8 mph - N/A   Clear
12:54 AM 1.4 °F -9.9 °F -2.2 °F 85% 30.24 in 10.0 mi WSW 5.8 mph - N/A   Clear
1:14 AM 1.4 °F -9.9 °F -2.2 °F 85% 30.23 in 10.0 mi WSW 5.8 mph - N/A   Clear
1:34 AM 3.2 °F -6.2 °F -2.2 °F 78% 30.23 in 10.0 mi WSW 4.6 mph - N/A   Clear
1:54 AM 1.4 °F -9.9 °F -2.2 °F 85% 30.23 in 10.0 mi WSW 5.8 mph - N/A   Mostly Cloudy
2:14 AM 3.2 °F -4.2 °F -2.2 °F 78% 30.23 in 10.0 mi SW 3.5 mph - N/A   Overcast
2:34 AM 3.2 °F -7.8 °F -2.2 °F 78% 30.23 in 10.0 mi SW 5.8 mph - N/A   Overcast
2:54 AM 3.2 °F -4.2 °F -2.2 °F 78% 30.23 in 10.0 mi WSW 3.5 mph - N/A   Overcast
3:14 AM 3.2 °F -4.2 °F -2.2 °F 78% 30.23 in 10.0 mi SW 3.5 mph - N/A   Scattered Clouds
3:34 AM 1.4 °F -9.9 °F -2.2 °F 85% 30.23 in 10.0 mi SW 5.8 mph - N/A   Clear
3:54 AM 1.4 °F -9.9 °F -2.2 °F 85% 30.23 in 10.0 mi SSW 5.8 mph - N/A   Clear
4:14 AM 1.4 °F -8.3 °F -2.2 °F 85% 30.22 in 10.0 mi SW 4.6 mph - N/A   Mostly Cloudy
4:34 AM 1.4 °F -9.9 °F -2.2 °F 85% 30.22 in 10.0 mi South 5.8 mph - N/A   Overcast
4:54 AM 1.4 °F -9.9 °F -2.2 °F 85% 30.22 in 10.0 mi SSW 5.8 mph - N/A   Mostly Cloudy
5:14 AM 1.4 °F -11.3 °F -4.0 °F 78% 30.22 in 10.0 mi SSW 6.9 mph - N/A   Overcast
5:34 AM 3.2 °F -9.1 °F -2.2 °F 78% 30.22 in 10.0 mi SSW 6.9 mph - N/A   Overcast
5:54 AM 3.2 °F -10.3 °F -0.4 °F 85% 30.22 in 10.0 mi SW 8.1 mph - N/A   Overcast
6:14 AM 3.2 °F -9.1 °F -0.4 °F 85% 30.22 in 10.0 mi SW 6.9 mph - N/A   Overcast
6:34 AM 5.0 °F -6.9 °F -0.4 °F 78% 30.22 in 10.0 mi SW 6.9 mph - N/A   Overcast
6:54 AM 5.0 °F -6.9 °F -0.4 °F 78% 30.21 in 10.0 mi SSW 6.9 mph - N/A   Overcast
7:14 AM 3.2 °F -10.3 °F -0.4 °F 85% 30.21 in 10.0 mi SW 8.1 mph - N/A   Overcast
7:34 AM 3.2 °F -7.8 °F -2.2 °F 78% 30.22 in 10.0 mi SSW 5.8 mph - N/A   Mostly Cloudy
7:54 AM 1.4 °F -12.5 °F -2.2 °F 85% 30.21 in 10.0 mi SSW 8.1 mph - N/A   Mostly Cloudy
8:14 AM 1.4 °F -12.5 °F -2.2 °F 85% 30.21 in 10.0 mi SSW 8.1 mph - N/A   Mostly Cloudy
8:34 AM 1.4 °F -11.3 °F -2.2 °F 85% 30.22 in 10.0 mi SSW 6.9 mph - N/A   Overcast
8:54 AM 3.2 °F -10.3 °F -0.4 °F 85% 30.22 in 10.0 mi SSW 8.1 mph - N/A   Overcast
9:14 AM 5.0 °F -8.1 °F -0.4 °F 78% 30.21 in 10.0 mi SW 8.1 mph - N/A   Scattered Clouds
9:34 AM 6.8 °F -5.9 °F -0.4 °F 72% 30.21 in 10.0 mi SW 8.1 mph - N/A   Clear
9:54 AM 8.6 °F -2.6 °F 1.4 °F 73% 30.20 in 10.0 mi SW 6.9 mph - N/A   Clear
10:14 AM 10.4 °F -1.5 °F 1.4 °F 67% 30.20 in 10.0 mi SW 8.1 mph - N/A   Clear
10:34 AM 10.4 °F -0.4 °F 3.2 °F 73% 30.20 in 10.0 mi WSW 6.9 mph - N/A   Clear
10:54 AM 12.2 °F -1.0 °F 3.2 °F 67% 30.20 in 10.0 mi SW 10.4 mph - N/A   Clear
11:14 AM 12.2 °F -2.5 °F 3.2 °F 67% 30.20 in 10.0 mi SW 12.7 mph - N/A   Clear
11:34 AM 12.2 °F -1.0 °F 5.0 °F 73% 30.21 in 10.0 mi SW 10.4 mph - N/A   Clear
11:54 AM 12.2 °F -1.8 °F 5.0 °F 73% 30.20 in 10.0 mi SW 11.5 mph - N/A   Clear
12:14 PM 15.8 °F 3.4 °F 6.8 °F 68% 30.18 in 10.0 mi SW 10.4 mph - N/A   Clear
12:34 PM 15.8 °F 2.1 °F 6.8 °F 68% 30.18 in 10.0 mi SW 12.7 mph - N/A   Clear
12:54 PM 15.8 °F 2.7 °F 6.8 °F 68% 30.18 in 10.0 mi SW 11.5 mph - N/A   Clear
1:14 PM 17.6 °F 5.0 °F 6.8 °F 63% 30.17 in 10.0 mi SW 11.5 mph - N/A   Clear
1:34 PM 17.6 °F 5.7 °F 6.8 °F 63% 30.16 in 10.0 mi SSW 10.4 mph - N/A   Clear
1:54 PM 17.6 °F 5.7 °F 6.8 °F 63% 30.16 in 10.0 mi SSW 10.4 mph - N/A   Clear
2:14 PM 17.6 °F 6.4 °F 8.6 °F 68% 30.16 in 10.0 mi SSW 9.2 mph - N/A   Clear
2:34 PM 17.6 °F 5.0 °F 6.8 °F 63% 30.16 in 10.0 mi SSW 11.5 mph - N/A   Clear
2:54 PM 17.6 °F 5.0 °F 6.8 °F 63% 30.16 in 10.0 mi SSW 11.5 mph - N/A   Clear
3:14 PM 17.6 °F 5.0 °F 6.8 °F 63% 30.16 in 10.0 mi South 11.5 mph - N/A   Clear
3:34 PM 15.8 °F 2.7 °F 6.8 °F 68% 30.16 in 10.0 mi South 11.5 mph - N/A   Clear
3:54 PM 15.8 °F 4.2 °F 6.8 °F 68% 30.15 in 10.0 mi South 9.2 mph - N/A   Clear
4:14 PM 15.8 °F 2.7 °F 6.8 °F 68% 30.15 in 10.0 mi South 11.5 mph - N/A   Clear
4:34 PM 15.8 °F 2.1 °F 6.8 °F 68% 30.14 in 10.0 mi South 12.7 mph - N/A   Clear
4:54 PM 15.8 °F 3.4 °F 6.8 °F 68% 30.14 in 10.0 mi SSE 10.4 mph - N/A   Clear
5:14 PM 15.8 °F 4.2 °F 6.8 °F 68% 30.13 in 10.0 mi SSE 9.2 mph - N/A   Clear
5:34 PM 15.8 °F 3.4 °F 6.8 °F 68% 30.13 in 10.0 mi SSE 10.4 mph - N/A   Clear
5:54 PM 14.0 °F 1.2 °F 6.8 °F 73% 30.13 in 10.0 mi SSE 10.4 mph - N/A   Clear
6:14 PM 14.0 °F 2.0 °F 6.8 °F 73% 30.13 in 10.0 mi SSE 9.2 mph - N/A   Clear
6:34 PM 8.6 °F -4.7 °F 3.2 °F 79% 30.13 in 10.0 mi SE 9.2 mph - N/A   Clear
6:54 PM 6.8 °F -6.9 °F 1.4 °F 79% 30.13 in 10.0 mi ESE 9.2 mph - N/A   Clear
7:14 PM 6.8 °F -6.9 °F 1.4 °F 79% 30.12 in 10.0 mi SE 9.2 mph - N/A   Clear
7:34 PM 6.8 °F -7.8 °F 1.4 °F 79% 30.12 in 10.0 mi SE 10.4 mph - N/A   Clear
7:54 PM 10.4 °F -4.1 °F 6.8 °F 85% 30.11 in 10.0 mi SSE 11.5 mph - N/A   Clear
8:14 PM 6.8 °F -6.9 °F 1.4 °F 79% 30.11 in 10.0 mi SE 9.2 mph - N/A   Clear
8:34 PM 6.8 °F -5.9 °F 1.4 °F 79% 30.11 in 10.0 mi SE 8.1 mph - N/A   Clear
8:54 PM 5.0 °F -8.1 °F -0.4 °F 78% 30.12 in 10.0 mi SE 8.1 mph - N/A   Clear
9:14 PM 5.0 °F -6.9 °F -0.4 °F 78% 30.12 in 10.0 mi SE 6.9 mph - N/A   Clear
9:34 PM 8.6 °F -1.3 °F 3.2 °F 79% 30.12 in 10.0 mi SSE 5.8 mph - N/A   Clear
9:54 PM 6.8 °F - -0.4 °F 72% 30.12 in 10.0 mi Calm Calm - N/A   Clear
10:14 PM 6.8 °F -2.0 °F 1.4 °F 79% 30.12 in 10.0 mi South 4.6 mph - N/A   Clear
10:34 PM 3.2 °F -6.2 °F -0.4 °F 85% 30.12 in 10.0 mi South 4.6 mph - N/A   Clear
10:54 PM 5.0 °F -6.9 °F 1.4 °F 85% 30.12 in 10.0 mi SSW 6.9 mph - N/A   Clear
11:14 PM 3.2 °F - -0.4 °F 85% 30.12 in 10.0 mi Calm Calm - N/A   Clear
11:34 PM 3.2 °F - -0.4 °F 85% 30.12 in 10.0 mi Calm Calm - N/A   Clear
11:54 PM 3.2 °F -7.8 °F -0.4 °F 85% 30.12 in 10.0 mi SSW 5.8 mph - N/A   Clear